SCP
0 0 0 0 0 0 0 0 0 0 0 0 0 0 0 0 0 0 0 0 0 0 0 0 0 0 0 0 0 0 0 0 0 0 0 0 0 0 0 0 0 0 0
0 0 0 0 0 0 0 0 0 0 0 0 0 0 0 0 0 0 0 0 0 0 0 0 0 0 0 0 0 0 0 0 0 0 0 0 0 0 0 0 0 0 0
0 0 0 0 0 0 0 0 0 0 0 0 0 0 0 0 0 0 0 0 0 0 0 0 0 0 0 0 0 0 0 0 0 0 0 0 0 0 0 0 0 0 0
0 0 0 0 0 0 0 0 0 0 0 0 0 0 0 0 0 0 0 0 0 0 0 0 0 0 0 0 0 0 0 0 0 0 0 0 0 0 0 0 0 0 0
0 0 0 0 0 0 0 0 0 0 0 0 0 0 0 0 0 0 0 0 0 0 0 0 0 0 0 0 0 0 0 0 0 0 0 0 0 0 0 0 0 0 0
0 0 0 0 0 0 0 0 0 0 0 0 0 0 0 0 0 0 0 0 0 0 0 0 0 0 0 0 0 0 0 0 0 0 0 0 0 0 0 0 0 0 0
0 0 0 0 0 0 0 0 0 0 0 0 0 0 0 0 0 0 0 0 0 0 0 0 0 0 0 0 0 0 0 0 0 0 0 0 0 0 0 0 0 0 0
0 0 0 0 0 0 0 0 0 0 0 0 0 0 0 0 0 0 0 0 0 0 0 0 0 0 0 0 0 0 0 0 0 0 0 0 0 0 0 0 0 0 0
0 0 0 0 0 0 0 0 0 0 0 0 0 0 0 0 0 0 0 0 0 0 0 0 0 0 0 0 0 0 0 0 0 0 0 0 0 0 0 0 0 0 0
0 0 0 0 0 0 0 0 0 0 0 0 0 0 0 0 0 0 0 0 0 0 0 0 0 0 0 0 0 0 0 0 0 0 0 0 0 0 0 0 0 0 0
0 0 0 0 0 0 0 0 0 0 0 0 0 0 0 0 0 0 0 0 0 0 0 0 0 0 0 0 0 0 0 0 0 0 0 0 0 0 0 0 0 0 0
0 0 0 0 0 0 0 0 0 0 0 0 0 0 0 0 0 0 0 0 0 0 0 0 0 0 0 0 0 0 0 0 0 0 0 0 0 0 0 0 0 0 0
0 0 0 0 0 0 0 0 0 0 0 0 0 0 0 0 0 0 0 0 0 0 0 0 0 0 0 0 0 0 0 0 0 0 0 0 0 0 0 0 0 0 0
0 0 0 0 0 0 0 0 0 0 0 0 0 0 0 0 0 0 0 0 0 0 0 0 0 0 0 0 0 0 0 0 0 0 0 0 0 0 0 0 0 0 0
0 0 0 0 0 0 0 0 0 0 0 0 0 0 0 0 0 0 0 0 0 0 0 0 0 0 0 0 0 0 0 0 0 0 0 0 0 0 0 0 0 0 0
0 0 0 0 0 0 0 0 0 0 0 0 0 0 0 0 0 0 0 0 0 0 0 0 0 0 0 0 0 0 0 0 0 0 0 0 0 0 0 0 0 0 0
0 0 0 0 0 0 0 0 0 0 0 0 0 0 0 0 0 0 0 0 0 0 0 0 0 0 0 0 0 0 0 0 0 0 0 0 0 0 0 0 0 0 0
0 0 0 0 0 0 0 0 0 0 0 0 0 0 0 0 0 0 0 0 0 0 0 0 0 0 0 0 0 0 0 0 0 0 0 0 0 0 0 0 0 0 0
0 0 0 0 0 0 0 0 0 0 0 0 0 0 0 0 0 0 0 0 0 0 0 0 0 0 0 0 0 0 0 0 0 0 0 0 0 0 0 0 0 0 0
0 0 0 0 0 0 0 0 0 0 0 0 0 0 0 0 0 0 0 0 0 0 0 0 0 0 0 0 0 0 0 0 0 0 0 0 0 0 0 0 0 0 0
0 0 0 0 0 0 0 0 0 0 0 0 0 0 0 0 0 0 0 0 0 0 0 0 0 0 0 0 0 0 0 0 0 0 0 0 0 0 0 0 0 0 0
0 0 0 0 0 0 0 0 0 0 0 0 0 0 0 0 0 0 0 0 0 0 0 0 0 0 0 0 0 0 0 0 0 0 0 0 0 0 0 0 0 0 0
0 0 0 0 0 0 0 0 0 0 0 0 0 0 0 0 0 0 0 0 0 0 0 0 0 0 0 0 0 0 0 0 0 0 0 0 0 0 0 0 0 0 0
0 0 0 0 0 0 0 0 0 0 0 0 0 0 0 0 0 0 0 0 0 0 0 0 0 0 0 0 0 0 0 0 0 0 0 0 0 0 0 0 0 0 0
0 0 0 0 0 0 0 0 0 0 0 0 0 0 0 0 0 0 0 0 0 0 0 0 0 0 0 0 0 0 0 0 0 0 0 0 0 0 0 0 0 0 0
0 0 0 0 0 0 0 0 0 0 0 0 0 0 0 0 0 0 0 0 0 0 0 0 0 0 0 0 0 0 0 0 0 0 0 0 0 0 0 0 0 0 1
Wind_Speed
5 6 7 4 4 4 4 4 4 3 2 2 2 2 2 2 2 2 2 1 1 1 1 1 1 1 1 2 2 2 2 2 2 2 2 2 2 2 2 2 1 3 6
6 6 7 4 4 3 2 2 2 1 1 0 1 1 1 2 2 2 2 2 2 2 2 2 1 1 1 1 1 2 2 2 2 2 1 2 3 2 1 1 3 4 4
6 7 7 5 4 3 3 2 2 2 2 2 2 2 2 3 3 3 4 4 4 4 4 3 2 2 1 1 1 2 2 2 1 1 3 3 4 3 2 1 2 3 3
7 6 6 5 3 3 3 3 2 3 3 3 3 3 3 4 5 5 5 5 5 6 6 5 4 4 3 2 2 2 2 2 1 3 4 0 1 5 1 1 1 2 3
7 6 7 4 4 3 3 3 3 4 4 4 4 4 4 4 5 6 6 6 6 7 7 7 6 5 5 3 3 2 2 2 2 6 1 1 1 4 1 1 1 2 3
7 6 7 5 4 3 3 3 3 4 4 4 5 5 5 5 5 6 6 6 7 8 9 8 7 7 6 5 4 3 3 3 6 3 1 1 0 3 1 1 1 2 3
7 6 6 6 4 4 4 4 4 4 5 5 5 5 6 6 5 6 7 7 7 8 8 8 7 7 7 6 5 4 4 4 6 2 2 1 1 2 1 1 2 2 2
6 5 5 6 5 5 5 5 5 5 5 5 5 5 5 6 7 7 7 7 8 8 7 8 7 7 7 7 6 5 5 7 5 4 2 1 3 1 2 2 2 2 3
5 4 3 3 3 3 3 5 5 6 6 5 5 5 5 6 6 7 7 7 7 7 7 7 7 8 7 7 7 6 5 5 7 4 4 1 3 2 3 3 3 3 3
4 3 3 3 2 2 1 4 4 5 5 5 4 5 5 5 5 5 6 5 6 6 6 6 6 7 7 7 7 6 5 6 7 5 4 2 3 4 4 4 4 4 4
3 2 2 2 3 3 3 3 2 1 2 4 3 2 5 5 5 4 4 5 6 6 6 6 5 6 7 7 7 6 6 6 5 5 3 3 2 4 5 5 5 5 5
2 1 2 2 3 3 3 2 3 3 3 4 5 4 4 4 4 5 2 4 5 5 6 5 5 7 7 5 6 7 5 6 5 5 2 3 4 5 5 5 5 6 6
1 1 2 2 3 3 3 3 3 3 3 4 5 5 4 4 4 4 3 3 4 5 5 4 5 4 4 4 3 4 5 5 4 4 3 5 5 5 6 6 6 7 7
1 1 2 3 3 4 4 3 4 3 3 3 4 6 4 3 4 4 3 3 3 3 3 4 3 5 5 5 5 5 6 4 4 4 3 4 5 6 7 7 7 8 8
1 0 1 3 4 4 4 3 4 4 4 4 4 5 5 4 5 4 3 3 4 3 3 4 4 4 5 5 5 5 6 6 6 5 3 6 6 7 7 7 8 8 9
0 1 1 3 4 5 4 4 4 4 3 4 4 5 6 4 5 5 4 4 4 4 3 4 5 4 4 4 5 5 6 6 6 6 5 5 8 7 7 7 8 9 10
0 1 2 3 4 5 5 5 4 4 4 4 4 6 6 5 5 4 4 4 4 4 4 4 5 4 4 4 5 5 5 5 5 6 5 4 5 8 7 7 8 9 10
1 1 2 2 3 4 5 4 4 4 4 4 4 4 5 5 5 5 4 4 4 4 4 3 4 4 4 4 4 4 4 3 6 6 5 5 4 4 7 7 7 8 9
1 0 1 2 3 4 4 3 4 4 4 4 4 4 5 5 6 5 4 5 5 3 3 4 3 3 3 3 3 3 4 3 4 5 6 6 5 4 4 7 7 7 8
2 1 1 2 3 3 3 3 3 3 3 3 3 4 5 5 5 5 4 5 4 3 3 3 3 3 3 3 4 3 3 3 3 4 5 4 4 5 5 5 6 7 7
3 1 0 2 2 2 3 3 4 4 4 3 3 5 5 5 5 5 4 4 4 3 4 5 3 4 3 2 2 2 2 3 2 2 3 3 4 4 5 5 4 4 5
3 2 1 1 2 3 3 4 3 4 4 4 4 4 5 5 5 4 4 4 3 3 4 4 3 3 2 2 2 2 2 3 3 2 2 2 3 3 4 5 5 4 3
4 2 1 1 1 2 3 3 3 2 3 2 4 4 5 5 5 5 5 4 4 4 3 3 3 3 3 2 2 2 2 1 1 2 2 2 2 2 2 3 4 5 5
4 3 2 1 1 1 2 3 5 4 4 5 4 4 4 4 4 4 4 4 4 3 3 3 2 3 3 2 1 1 2 1 1 1 2 2 2 3 2 2 2 3 4
4 3 2 1 1 1 2 3 4 4 4 4 4 5 5 3 4 4 4 4 4 3 3 3 3 3 3 3 2 1 1 1 2 1 1 1 2 1 1 1 1 2 2
5 4 3 2 1 1 2 3 3 4 5 5 5 5 4 3 3 4 4 4 4 3 3 3 3 3 3 3 3 2 2 1 1 1 1 2 1 1 1 1 1 1 1
Wind_Direction
143 137 125 139 133 130 125 124 119 121 118 136 148 156 168 182 189 193 208 236 277 289 301 315 4 18 35 43 35 34 37 37 46 42 48 72 79 80 79 97 234 122 96
130 130 124 134 120 114 107 109 109 101 85 81 202 212 215 224 227 232 238 255 270 276 280 286 308 323 360 22 8 4 13 22 30 31 9 182 141 97 87 72 352 60 93
120 122 127 121 113 107 88 66 43 14 343 331 307 273 265 264 266 262 264 266 270 270 270 272 282 285 297 306 331 336 348 355 0 351 254 228 133 117 94 100 86 91 97
110 113 106 103 93 82 68 52 33 15 356 342 328 305 284 277 276 274 274 275 278 277 270 263 263 268 270 274 293 311 326 338 332 269 241 141 126 104 101 122 123 121 109
107 103 93 84 73 67 58 40 26 11 1 350 337 321 302 289 284 279 275 274 279 282 276 264 260 260 262 261 267 283 300 310 285 264 303 351 46 104 133 139 140 130 123
108 103 92 73 64 51 31 16 13 1 358 353 344 332 321 310 300 294 287 280 273 273 276 271 262 257 258 258 256 265 281 290 261 262 286 264 162 112 168 175 163 147 137
107 98 92 69 55 44 30 21 14 3 354 347 340 341 339 329 318 307 298 291 282 277 278 278 270 261 256 258 257 253 259 272 267 265 247 244 74 79 214 196 192 172 153
105 101 95 90 65 47 34 26 14 4 352 348 344 341 340 335 325 312 301 298 292 286 283 281 276 265 253 252 252 250 250 268 247 248 247 233 85 242 233 210 202 186 173
103 92 83 86 98 91 47 25 12 4 357 349 343 336 333 327 320 309 302 301 298 296 288 280 277 272 259 248 244 242 242 257 269 257 246 212 120 234 233 214 208 198 186
105 91 72 63 24 6 42 65 15 4 353 340 332 331 319 294 287 294 285 299 300 302 301 293 280 276 266 251 241 236 237 244 247 248 245 145 145 240 234 218 211 206 195
106 79 61 33 22 0 347 33 339 335 344 294 272 283 282 287 297 287 319 318 307 304 302 302 290 276 270 245 232 229 233 243 243 253 249 97 219 248 241 227 213 208 197
119 79 30 11 2 350 347 339 325 324 334 315 322 319 304 303 298 300 286 279 285 288 281 277 283 264 256 248 220 216 232 235 245 243 209 144 240 250 246 229 210 204 191
111 68 2 353 355 336 334 333 331 325 326 316 328 323 311 304 294 289 292 267 269 266 278 263 255 253 253 253 251 235 241 242 242 246 199 166 236 247 243 225 207 200 193
119 8 349 338 334 334 335 335 319 323 326 327 327 322 318 313 306 311 297 308 298 289 283 274 269 257 256 251 239 240 238 239 242 244 199 177 235 247 240 222 210 200 195
178 42 343 327 335 337 338 322 317 326 326 328 328 318 321 312 306 306 297 303 297 295 277 273 267 262 257 251 243 236 240 236 240 239 206 184 223 241 238 223 210 203 196
161 22 3 337 341 335 331 329 332 329 319 315 323 320 319 315 308 307 300 301 298 295 295 281 271 269 264 253 245 243 243 239 236 238 246 196 203 226 233 224 209 203 197
124 30 15 348 341 340 338 340 329 320 320 323 325 320 319 316 308 307 306 302 300 297 290 282 279 269 262 254 243 238 239 242 242 233 236 240 205 198 212 218 208 201 198
179 25 46 355 341 347 346 335 328 326 326 320 319 317 316 316 314 311 305 303 305 299 291 280 274 269 259 257 252 243 243 233 243 239 234 230 230 208 189 193 193 195 198
169 51 33 19 350 353 346 328 327 331 329 322 325 326 324 320 316 306 303 303 303 297 292 287 282 283 276 267 258 239 241 236 238 234 230 228 221 220 202 169 183 192 196
170 162 27 26 348 348 331 328 340 340 334 335 336 334 329 319 317 313 300 301 303 295 289 286 286 277 281 271 263 247 231 229 231 237 236 224 220 215 207 185 184 183 185
172 184 80 339 6 350 342 333 333 340 338 341 343 342 331 322 322 315 307 305 299 296 292 289 284 275 272 272 261 240 209 208 213 224 233 225 209 210 202 192 192 186 179
180 191 220 322 5 357 354 334 326 323 323 338 334 339 339 331 325 318 313 306 300 291 284 286 281 282 278 253 264 254 210 182 191 201 211 217 216 200 206 192 188 187 197
190 185 213 300 354 358 341 330 320 317 307 330 342 346 345 335 328 322 317 311 305 294 291 282 275 270 280 266 255 266 250 204 176 174 200 204 213 220 209 200 195 194 196
185 180 207 218 311 341 323 331 336 336 341 347 337 339 331 333 334 329 317 308 303 299 293 280 279 270 270 267 248 258 300 325 245 182 179 186 201 216 207 200 206 207 207
176 182 207 215 255 318 324 334 313 329 338 334 332 336 334 344 342 338 323 312 306 299 300 296 289 275 258 258 260 244 238 241 256 252 205 198 192 203 203 208 214 225 213
173 182 199 214 234 289 299 305 315 333 327 332 338 341 340 346 341 348 332 321 318 311 308 301 279 263 262 251 252 244 239 234 233 254 249 233 211 186 198 188 207 219 236